Location: Saluda
(35.2377°N, 82.3468°W)
Time: 15:25:13
(UTC+00:00)

Explorer 11/Cluster Stage 4 - Pass Details

Date: 05 October 2022
Orbit: 466 x 1247 km, 28.8° (Epoch: 08 December)

Event Time Altitude Azimuth Distance (km) Brightness Sun altitude
Rises 16:45:47 0° 249° (WSW) 4,171 10.4 49.2°
Reaches altitude 10° 16:48:49 10° 245° (WSW) 3,213 10.0 49.3°
Maximum altitude 16:56:39 50° 173° (S) 1,488 13.1 49.5°
Drops below altitude 10° 17:03:49 10° 100° (E) 2,946 9.8 49.7°
Sets 17:06:29 0° 95° (E) 3,803 10.2 49.8°
